Flag for Germany Weather past 2 weeks in Frankfurt, Hesse, Germany

Now
70 °F

Passing clouds.


Feels Like: 70 °F
Forecast: 51 / 70 °F
Wind: 20 mph from West

Location: Frankfurt-M-Flughafen Airport

Current Time: Jul 29, 2015 at 7:07:52 PM

Latest Report: Jul 29, 2015 at 6:20 PM


Visibility: N/A

Pressure: 29.83 "Hg

Humidity: 31%

Dew point: 37 °F

Location of FrankfurtLocation

Historic Weather in Frankfurt — Graph

°F

Frankfurt temperature yesterday

Maximum temperature yesterday: 72 °F (at 2:20 PM)
Minimum temperature yesterday: 59 °F (at 4:20 AM)
Average temperature yesterday: 65 °F

Past Weeks' High & Low Weather Summary

 TemperatureHumidityPressure
High95 °F (Jul 17, 4:20 PM)94% (Jul 18, 12:50 AM)30.12 "Hg (Jul 18, 12:50 AM)
Low48 °F (Jul 26, 4:20 AM)22% (Jul 17, 4:20 PM)29.62 "Hg (Jul 24, 11:20 PM)
Average72 °F60%29.91 "Hg
* Reported Jul 14 5:20 PM — Jul 29 5:50 PM, Frankfurt, Weather by CustomWeather, © 2015

Note: Actual official high and low records may vary slightly from our data, if they occured in-between our weather recording intervals... More about our weather records

Advertising

Frankfurt weather history for previous 24 hours

 ConditionsComfort  
Time TempWeatherWind HumidityBarometerVisibility
5:50 PM
Wed, Jul 29
70 °FSunny.16 mph31%29.83 "Hg10 mi
5:20 PM70 °FSunny.17 mph31%29.80 "Hg10 mi
4:50 PM72 °FSunny.20 mph29%29.80 "Hg10 mi
4:20 PM72 °FPassing clouds.15 mph29%29.80 "HgN/A
3:50 PM70 °FSunny.15 mph31%29.77 "Hg10 mi
3:20 PM68 °FScattered clouds.16 mph43%29.77 "HgN/A
2:50 PM66 °FScattered clouds.17 mph46%29.80 "HgN/A
2:20 PM68 °FScattered clouds.17 mph49%29.80 "HgN/A
1:50 PM64 °FScattered clouds.15 mph52%29.80 "HgN/A
1:20 PM63 °FPartly sunny.13 mph68%29.80 "HgN/A
12:50 PM61 °FPartly sunny.13 mph72%29.80 "HgN/A
12:20 PM59 °FLight rain. Partly sunny.14 mph88%29.80 "HgN/A
11:50 AM61 °FLight rain. Broken clouds.13 mph68%29.80 "HgN/A
11:20 AM61 °FLight rain. Partly sunny.13 mph59%29.80 "HgN/A
10:50 AM61 °FLight rain. Broken clouds.15 mph63%29.80 "HgN/A
10:20 AM61 °FLight rain. Partly sunny.13 mph63%29.80 "HgN/A
9:20 AM61 °FLight rain. Broken clouds.12 mph63%29.83 "HgN/A
8:50 AM61 °FLight rain. Partly sunny.12 mph63%29.83 "HgN/A
8:20 AM59 °FLight rain. Partly sunny.9 mph72%29.83 "HgN/A
7:50 AM59 °FPartly sunny.10 mph72%29.83 "HgN/A
7:20 AM59 °FBroken clouds.12 mph72%29.83 "HgN/A
6:50 AM57 °FScattered clouds.12 mph72%29.83 "HgN/A
5:50 AM57 °FPartly cloudy.10 mph77%29.83 "HgN/A
5:20 AM57 °FPassing clouds.10 mph77%29.83 "HgN/A
4:50 AM57 °FPassing clouds.9 mph77%29.83 "HgN/A
4:20 AM57 °FClear.10 mph77%29.83 "Hg10 mi
3:50 AM57 °FClear.12 mph77%29.83 "Hg10 mi
3:20 AM59 °FClear.13 mph72%29.83 "Hg10 mi
2:50 AM59 °FLight rain. Passing clouds.10 mph72%29.83 "HgN/A
2:20 AM59 °FLight rain. Clear.10 mph68%29.83 "HgN/A
1:50 AM61 °FClear.10 mph63%29.83 "Hg10 mi
1:20 AM61 °FPassing clouds.10 mph63%29.83 "HgN/A
12:50 AM61 °FClear.12 mph59%29.83 "Hg10 mi
11:20 PM
Tue, Jul 28
64 °FClear.16 mph49%29.83 "Hg10 mi
10:50 PM64 °FClear.10 mph49%29.83 "Hg10 mi
10:20 PM64 °FClear.12 mph49%29.83 "Hg10 mi
9:50 PM64 °FSunny.14 mph46%29.83 "Hg10 mi
9:20 PM66 °FSunny.15 mph43%29.80 "Hg10 mi
8:50 PM66 °FSunny.16 mph43%29.80 "Hg10 mi
8:20 PM66 °FSunny.17 mph43%29.80 "Hg10 mi
7:50 PM66 °FSunny.15 mph43%29.80 "Hg10 mi
7:20 PM68 °FSunny.17 mph38%29.80 "Hg10 mi
Weather by CustomWeather, © 2015

See weather overviewHow to use our weather pages